New Bedford, MA

4:48 PM EST on February 19, 2017 (GMT -0500)
New Bedford Regional

Weather History for KEWB - June, 2012

Change the Weather History Date:

Tuesday, June 12, 2012

  Actual Average Record
Temperature  
Mean Temperature 63 °F -  
Max Temperature 71 °F 73 °F 94 °F (1973)
Min Temperature 57 °F 56 °F 46 °F (1980)
Degree Days  
Heating Degree Days 2    
Growing Degree Days 13 (Base 50)    
Moisture  
Dew Point 57 °F    
Average Humidity 81    
Maximum Humidity 94    
Minimum Humidity 61    
Precipitation  
Precipitation 0.03 in - - ()
Sea Level Pressure  
Sea Level Pressure 30.13 in    
Wind  
Wind Speed 9 mph (South)    
Max Wind Speed 16 mph    
Max Gust Speed 24 mph    
Visibility 10 miles    
Events Rain    
Averages and records for this station are not official NWS values.
T = Trace of Precipitation, MM = Missing Value Source: NWS Daily Summary

Daily Weather History Graph

Daily Weather History Graph

Search for Another Location

Airport or City:

Trip Planner

Search our weather history database for the weather conditions in past years. The results will help you decide how hot, cold, wet, or windy it might be!

Date:

Astronomy

Jun. 12, 2012 Rise Set
Actual Time 5:08 AM EDT 8:18 PM EDT
Civil Twilight 4:34 AM EDT 8:53 PM EDT
Nautical Twilight 3:51 AM EDT 9:36 PM EDT
Astronomical Twilight 2:58 AM EDT 10:29 PM EDT
Moon 12:57 AM EDT (6/12) 2:00 PM EDT (6/12)
Length of Visible Light 16h 18m
Length of Day
15h 10m
Last Quarter, 38% of the Moon is Illuminated
Jun 12
Last Quarter
Jun 19
New
Jun 26
First Quarter
Jul 3
Full
Jul 10
Last Quarter

Hourly Weather History & Observations

Time (EDT) Temp. Dew Point Humidity Pressure Visibility Wind Dir Wind Speed Gust Speed Precip Events Conditions
12:02 AM 59.0 °F 55.4 °F 88% 30.23 in 10.0 mi South 9.2 mph - N/A   Overcast
12:53 AM 57.9 °F 55.0 °F 90% 30.23 in 10.0 mi South 4.6 mph - N/A   Overcast
1:03 AM 57.2 °F 55.4 °F 94% 30.23 in 10.0 mi South 5.8 mph - N/A   Overcast
1:53 AM 59.0 °F 55.0 °F 87% 30.22 in 10.0 mi South 6.9 mph - N/A   Overcast
2:31 AM 59.0 °F 55.4 °F 88% 30.21 in 10.0 mi South 5.8 mph - N/A   Overcast
2:53 AM 59.0 °F 55.9 °F 90% 30.21 in 10.0 mi South 5.8 mph - N/A   Overcast
3:53 AM 60.1 °F 57.0 °F 90% 30.19 in 10.0 mi South 6.9 mph - N/A   Overcast
4:53 AM 59.0 °F 55.9 °F 90% 30.18 in 10.0 mi SSW 6.9 mph - N/A   Overcast
5:48 AM 59.0 °F 57.2 °F 94% 30.18 in 9.0 mi South 3.5 mph - N/A   Overcast
5:53 AM 59.0 °F 57.0 °F 93% 30.18 in 9.0 mi South 3.5 mph - N/A   Overcast
6:34 AM 60.8 °F 57.2 °F 88% 30.18 in 9.0 mi South 5.8 mph - N/A   Mostly Cloudy
6:53 AM 61.0 °F 57.0 °F 87% 30.18 in 10.0 mi Variable 6.9 mph - N/A   Mostly Cloudy
7:00 AM 60.8 °F 57.2 °F 88% 30.17 in 10.0 mi South 8.1 mph - N/A   Mostly Cloudy
7:53 AM 62.1 °F 57.0 °F 84% 30.17 in 10.0 mi South 9.2 mph - N/A   Mostly Cloudy
8:32 AM 64.4 °F 57.2 °F 77% 30.16 in 10.0 mi South 12.7 mph - N/A   Overcast
8:53 AM 64.9 °F 57.9 °F 78% 30.16 in 10.0 mi SSW 11.5 mph - N/A   Mostly Cloudy
9:02 AM 66.2 °F 57.2 °F 73% 30.15 in 10.0 mi South 12.7 mph 24.2 mph N/A   Mostly Cloudy
9:53 AM 68.0 °F 57.9 °F 70% 30.14 in 10.0 mi SSW 16.1 mph 20.7 mph N/A   Mostly Cloudy
10:19 AM 66.2 °F 57.2 °F 73% 30.15 in 10.0 mi South 10.4 mph - N/A   Overcast
10:53 AM 66.9 °F 59.0 °F 76% 30.15 in 10.0 mi South 13.8 mph - N/A   Mostly Cloudy
11:53 AM 68.0 °F 59.0 °F 73% 30.13 in 10.0 mi SSW 9.2 mph 18.4 mph N/A   Mostly Cloudy
12:53 PM 69.1 °F 57.9 °F 68% 30.12 in 10.0 mi South 13.8 mph - N/A   Mostly Cloudy
1:53 PM 69.1 °F 57.9 °F 68% 30.11 in 10.0 mi South 15.0 mph 20.7 mph N/A   Scattered Clouds
2:53 PM 69.1 °F 57.9 °F 68% 30.09 in 10.0 mi SSW 13.8 mph 21.9 mph N/A   Partly Cloudy
3:53 PM 69.1 °F 55.0 °F 61% 30.08 in 10.0 mi South 15.0 mph 20.7 mph N/A   Partly Cloudy
4:53 PM 66.9 °F 55.9 °F 68% 30.06 in 10.0 mi South 11.5 mph - N/A   Clear
5:53 PM 66.0 °F 55.9 °F 70% 30.04 in 10.0 mi South 10.4 mph - N/A   Clear
6:53 PM 64.9 °F 57.0 °F 75% 30.03 in 10.0 mi South 12.7 mph - N/A   Clear
7:53 PM 64.0 °F 57.0 °F 78% 30.02 in 10.0 mi South 9.2 mph - N/A   Clear
8:53 PM 63.0 °F 57.0 °F 81% 30.02 in 10.0 mi South 10.4 mph - N/A   Clear
9:53 PM 63.0 °F 57.9 °F 84% 30.01 in 10.0 mi South 9.2 mph 19.6 mph 0.00 in Rain Light Rain
10:53 PM 62.1 °F 59.0 °F 90% 30.00 in 8.0 mi South 6.9 mph - 0.02 in Rain Light Rain
11:53 PM 62.1 °F 60.1 °F 93% 29.99 in 8.0 mi South 8.1 mph - 0.01 in Rain Light Rain